Location: St Paul
(33.9360°N, 83.4200°W)
Time: 03:45:57
(UTC-04:00)

USA 234 - Pass Details

Date: 06 October 2017
Orbit: 1101 x 1107 km, 123.0° (Epoch: 15 October)

Event Time Altitude Azimuth Distance (km) Brightness Sun altitude
Exits shadow 20:41:16 31° 89° (E) 1,822 3.8 -19.6°
Maximum altitude 20:43:53 46° 39° (NE) 1,449 3.6 -20.1°
Drops below altitude 10° 20:50:04 10° 329° (NNW) 2,969 6.0 -21.4°
Sets 20:52:39 0° 323° (NW) 3,930 6.8 -21.9°
